Powrót do katalogu

NOAA 3

AktywnyPogodaSSO
NORAD 6920·PAYLOAD·🇺🇸 United States

Wystrzelony Nov 6, 1973 z Vandenberg Space Force Base

Loading…

Następne Przeloty (najbliższe 24 godziny)

TLE

ŚwieżeSource: Space-Track

Epoka: Sep 14, 2026, 01:34 UTC

1 06920U 73086A   26257.06591539 -.00000043  00000-0  28411-4 0  9999
2 06920 102.2853 271.8329 0006377 325.3999  49.9667 12.40397052392924

Śledź NOAA 3 w czasie rzeczywistym z AllMySat

Download on the App Store